owner,sensor,date,latitude,longitude,vertical_datum,direction_of_sea_water_velocity,sea_water_speed,upward_sea_water_velocity,qcFlag 
TABS,ioos:station:wmo:42045:1,2007-05-01T00:00:00Z,26.2168,-96.4998,2.0,115.7670512,8.028262577,-99999.0,'11133222,11111222,99999999' 
TABS,ioos:station:wmo:42045:1,2007-05-01T00:30:00Z,26.2168,-96.4998,2.0,120.1639385,8.478000944,-99999.0,'11133222,11111222,99999999' 
TABS,ioos:station:wmo:42045:1,2007-05-01T01:00:00Z,26.2168,-96.4998,2.0,110.4254621,7.192197161,-99999.0,'11133222,11111222,99999999' 
TABS,ioos:station:wmo:42045:1,2007-05-01T01:30:00Z,26.2168,-96.4998,2.0,97.94001371,7.673565012,-99999.0,'11133222,11111222,99999999' 
TABS,ioos:station:wmo:42045:1,2007-05-01T02:00:00Z,26.2168,-96.4998,2.0,105.7790276,7.097450246,-99999.0,'11133222,11111222,99999999' 
TABS,ioos:station:wmo:42045:1,2007-05-01T02:30:00Z,26.2168,-96.4998,2.0,76.53622897,5.583448755,-99999.0,'11133222,11111222,99999999' 
TABS,ioos:station:wmo:42045:1,2007-05-01T03:00:00Z,26.2168,-96.4998,2.0,34.43911923,2.970673324,-99999.0,'11133222,11111222,99999999' 
TABS,ioos:station:wmo:42045:1,2007-05-01T03:30:00Z,26.2168,-96.4998,2.0,66.44351975,3.152728977,-99999.0,'11133222,11111222,99999999' 
TABS,ioos:station:wmo:42045:1,2007-05-01T04:00:00Z,26.2168,-96.4998,2.0,58.24803808,6.232848466,-99999.0,'11133222,11111222,99999999' 
TABS,ioos:station:wmo:42045:1,2007-05-01T04:30:00Z,26.2168,-96.4998,2.0,87.92712245,9.67633195,-99999.0,'11133222,11111222,99999999' 
TABS,ioos:station:wmo:42045:1,2007-05-01T05:00:00Z,26.2168,-96.4998,2.0,73.69983869,6.876401675,-99999.0,'11133222,11111222,99999999' 
TABS,ioos:station:wmo:42045:1,2007-05-01T05:30:00Z,26.2168,-96.4998,2.0,83.09301922,8.149141059,-99999.0,'11133222,11111222,99999999' 
TABS,ioos:station:wmo:42045:1,2007-05-01T06:00:00Z,26.2168,-96.4998,2.0,81.13360515,8.693888658,-99999.0,'11133222,11111222,99999999' 
TABS,ioos:station:wmo:42045:1,2007-05-01T06:30:00Z,26.2168,-96.4998,2.0,92.14815119,12.53881175,-99999.0,'11111222,11111222,99999999' 
TABS,ioos:station:wmo:42045:1,2007-05-01T07:00:00Z,26.2168,-96.4998,2.0,91.69130913,10.16442817,-99999.0,'11111222,11111222,99999999' 
TABS,ioos:station:wmo:42045:1,2007-05-01T07:30:00Z,26.2168,-96.4998,2.0,99.48236626,14.08241812,-99999.0,'11111222,11111222,99999999' 
TABS,ioos:station:wmo:42045:1,2007-05-01T08:00:00Z,26.2168,-96.4998,2.0,109.6996317,12.60791022,-99999.0,'11111222,11111222,99999999' 
TABS,ioos:station:wmo:42045:1,2007-05-01T08:30:00Z,26.2168,-96.4998,2.0,113.9086039,10.80734935,-99999.0,'11111222,11111222,99999999' 
TABS,ioos:station:wmo:42045:1,2007-05-01T09:00:00Z,26.2168,-96.4998,2.0,87.9182442,12.93853933,-99999.0,'11111222,11111222,99999999' 
TABS,ioos:station:wmo:42045:1,2007-05-01T09:30:00Z,26.2168,-96.4998,2.0,87.28952228,12.05348497,-99999.0,'11111222,11111222,99999999' 
TABS,ioos:station:wmo:42045:1,2007-05-01T10:00:00Z,26.2168,-96.4998,2.0,86.77342362,15.63478494,-99999.0,'11111222,11111222,99999999' 
TABS,ioos:station:wmo:42045:1,2007-05-01T10:30:00Z,26.2168,-96.4998,2.0,82.70288441,18.58048708,-99999.0,'11111222,11111222,99999999' 
TABS,ioos:station:wmo:42045:1,2007-05-01T11:00:00Z,26.2168,-96.4998,2.0,96.23343027,23.11667147,-99999.0,'11111222,11111222,99999999' 
TABS,ioos:station:wmo:42045:1,2007-05-01T11:30:00Z,26.2168,-96.4998,2.0,96.76657828,23.00021087,-99999.0,'11111222,11111222,99999999' 
TABS,ioos:station:wmo:42045:1,2007-05-01T12:00:00Z,26.2168,-96.4998,2.0,92.78602262,25.09966733,-99999.0,'11111222,11111222,99999999' 
TABS,ioos:station:wmo:42045:1,2007-05-01T12:30:00Z,26.2168,-96.4998,2.0,89.91302375,26.35003036,-99999.0,'11111222,11111222,99999999' 
TABS,ioos:station:wmo:42045:1,2007-05-01T13:00:00Z,26.2168,-96.4998,2.0,82.96081976,22.35852634,-99999.0,'11111222,11111222,99999999' 
TABS,ioos:station:wmo:42045:1,2007-05-01T13:30:00Z,26.2168,-96.4998,2.0,85.96860168,25.60335134,-99999.0,'11111222,11111222,99999999' 
TABS,ioos:station:wmo:42045:1,2007-05-01T14:00:00Z,26.2168,-96.4998,2.0,86.45946512,23.96574222,-99999.0,'11111222,11111222,99999999' 
TABS,ioos:station:wmo:42045:1,2007-05-01T14:30:00Z,26.2168,-96.4998,2.0,91.87090744,26.95436885,-99999.0,'11111222,11111222,99999999' 
TABS,ioos:station:wmo:42045:1,2007-05-01T15:00:00Z,26.2168,-96.4998,2.0,93.45557957,26.04735879,-99999.0,'11111222,11111222,99999999' 
TABS,ioos:station:wmo:42045:1,2007-05-01T15:30:00Z,26.2168,-96.4998,2.0,100.7509419,26.53577585,-99999.0,'11111222,11111222,99999999' 
TABS,ioos:station:wmo:42045:1,2007-05-01T16:00:00Z,26.2168,-96.4998,2.0,99.57121989,25.07911083,-99999.0,'11111222,11111222,99999999' 
TABS,ioos:station:wmo:42045:1,2007-05-01T16:30:00Z,26.2168,-96.4998,2.0,105.5503554,24.50708061,-99999.0,'11111222,11111222,99999999' 
TABS,ioos:station:wmo:42045:1,2007-05-01T17:00:00Z,26.2168,-96.4998,2.0,114.1685946,26.52507493,-99999.0,'11111222,11111222,99999999' 
TABS,ioos:station:wmo:42045:1,2007-05-01T17:30:00Z,26.2168,-96.4998,2.0,116.7964244,25.46454987,-99999.0,'11111222,11111222,99999999' 
TABS,ioos:station:wmo:42045:1,2007-05-01T18:00:00Z,26.2168,-96.4998,2.0,117.1512496,24.03898916,-99999.0,'11111222,11111222,99999999' 
TABS,ioos:station:wmo:42045:1,2007-05-01T18:30:00Z,26.2168,-96.4998,2.0,122.1510109,22.92570828,-99999.0,'11111222,11111222,99999999' 
TABS,ioos:station:wmo:42045:1,2007-05-01T19:00:00Z,26.2168,-96.4998,2.0,116.852039,22.31623848,-99999.0,'11111222,11111222,99999999' 
TABS,ioos:station:wmo:42045:1,2007-05-01T19:30:00Z,26.2168,-96.4998,2.0,117.2054625,22.00428367,-99999.0,'11111222,11111222,99999999' 
TABS,ioos:station:wmo:42045:1,2007-05-01T20:00:00Z,26.2168,-96.4998,2.0,114.4796225,19.90971873,-99999.0,'11111222,11111222,99999999' 
TABS,ioos:station:wmo:42045:1,2007-05-01T20:30:00Z,26.2168,-96.4998,2.0,110.4977284,23.01732391,-99999.0,'11111222,11111222,99999999' 
TABS,ioos:station:wmo:42045:1,2007-05-01T21:00:00Z,26.2168,-96.4998,2.0,111.8850705,20.33551819,-99999.0,'11111222,11111222,99999999' 
TABS,ioos:station:wmo:42045:1,2007-05-01T21:30:00Z,26.2168,-96.4998,2.0,110.6486746,22.4309652,-99999.0,'11111222,11111222,99999999' 
TABS,ioos:station:wmo:42045:1,2007-05-01T22:00:00Z,26.2168,-96.4998,2.0,107.446455,22.54723265,-99999.0,'11111222,11111222,99999999' 
TABS,ioos:station:wmo:42045:1,2007-05-01T22:30:00Z,26.2168,-96.4998,2.0,116.1261133,18.09926518,-99999.0,'11111222,11111222,99999999' 
TABS,ioos:station:wmo:42045:1,2007-05-01T23:00:00Z,26.2168,-96.4998,2.0,106.5129542,18.85778354,-99999.0,'11111222,11111222,99999999' 
TABS,ioos:station:wmo:42045:1,2007-05-01T23:30:00Z,26.2168,-96.4998,2.0,114.1304644,18.00318027,-99999.0,'11111222,11111222,99999999' 
TABS,ioos:station:wmo:42045:1,2007-05-02T00:00:00Z,26.2168,-96.4998,2.0,109.3812534,12.44526014,-99999.0,'11111222,11111222,99999999' 
TABS,ioos:station:wmo:42045:1,2007-05-02T00:30:00Z,26.2168,-96.4998,2.0,111.4198642,7.530112881,-99999.0,'11133222,11111222,99999999' 
TABS,ioos:station:wmo:42045:1,2007-05-02T01:00:00Z,26.2168,-96.4998,2.0,106.2273231,9.769201605,-99999.0,'11133222,11111222,99999999' 
TABS,ioos:station:wmo:42045:1,2007-05-02T01:30:00Z,26.2168,-96.4998,2.0,108.6478997,12.75987853,-99999.0,'11111222,11111222,99999999' 
TABS,ioos:station:wmo:42045:1,2007-05-02T02:00:00Z,26.2168,-96.4998,2.0,93.14248843,10.21536098,-99999.0,'11111222,11111222,99999999' 
TABS,ioos:station:wmo:42045:1,2007-05-02T02:30:00Z,26.2168,-96.4998,2.0,104.2074549,9.737848838,-99999.0,'11133222,11111222,99999999' 
TABS,ioos:station:wmo:42045:1,2007-05-02T03:00:00Z,26.2168,-96.4998,2.0,108.8443254,7.523250627,-99999.0,'11133222,11111222,99999999' 
TABS,ioos:station:wmo:42045:1,2007-05-02T03:30:00Z,26.2168,-96.4998,2.0,114.4678486,9.898994898,-99999.0,'11133222,11111222,99999999' 
TABS,ioos:station:wmo:42045:1,2007-05-02T04:00:00Z,26.2168,-96.4998,2.0,97.48888169,6.444974787,-99999.0,'11133222,11111222,99999999' 
TABS,ioos:station:wmo:42045:1,2007-05-02T04:30:00Z,26.2168,-96.4998,2.0,101.9157092,8.717849505,-99999.0,'11133222,11111222,99999999' 
TABS,ioos:station:wmo:42045:1,2007-05-02T05:00:00Z,26.2168,-96.4998,2.0,72.56690871,7.777229584,-99999.0,'11133222,11111222,99999999' 
TABS,ioos:station:wmo:42045:1,2007-05-02T05:30:00Z,26.2168,-96.4998,2.0,97.90248319,6.764236838,-99999.0,'11133222,11111222,99999999' 
TABS,ioos:station:wmo:42045:1,2007-05-02T06:00:00Z,26.2168,-96.4998,2.0,67.00941609,8.320943456,-99999.0,'11133222,11111222,99999999' 
TABS,ioos:station:wmo:42045:1,2007-05-02T06:30:00Z,26.2168,-96.4998,2.0,84.24387922,11.26680966,-99999.0,'11111222,11111222,99999999' 
TABS,ioos:station:wmo:42045:1,2007-05-02T07:00:00Z,26.2168,-96.4998,2.0,63.91087746,13.46159352,-99999.0,'11111222,11111222,99999999' 
TABS,ioos:station:wmo:42045:1,2007-05-02T07:30:00Z,26.2168,-96.4998,2.0,75.64713602,14.48202334,-99999.0,'11111222,11111222,99999999' 
TABS,ioos:station:wmo:42045:1,2007-05-02T08:00:00Z,26.2168,-96.4998,2.0,77.20368617,16.02808161,-99999.0,'11111222,11111222,99999999' 
TABS,ioos:station:wmo:42045:1,2007-05-02T08:30:00Z,26.2168,-96.4998,2.0,73.28081029,16.47652876,-99999.0,'11111222,11111222,99999999' 
TABS,ioos:station:wmo:42045:1,2007-05-02T09:00:00Z,26.2168,-96.4998,2.0,70.7599112,14.6269785,-99999.0,'11111222,11111222,99999999' 
TABS,ioos:station:wmo:42045:1,2007-05-02T09:30:00Z,26.2168,-96.4998,2.0,69.73323539,14.83866571,-99999.0,'11111222,11111222,99999999' 
TABS,ioos:station:wmo:42045:1,2007-05-02T10:00:00Z,26.2168,-96.4998,2.0,74.98464631,13.62521559,-99999.0,'11111222,11111222,99999999' 
TABS,ioos:station:wmo:42045:1,2007-05-02T10:30:00Z,26.2168,-96.4998,2.0,79.23399939,14.66818666,-99999.0,'11111222,11111222,99999999' 
TABS,ioos:station:wmo:42045:1,2007-05-02T11:00:00Z,26.2168,-96.4998,2.0,78.91893208,15.71295007,-99999.0,'11111222,11111222,99999999' 
TABS,ioos:station:wmo:42045:1,2007-05-02T11:30:00Z,26.2168,-96.4998,2.0,84.33962669,17.03305316,-99999.0,'11111222,11111222,99999999' 
TABS,ioos:station:wmo:42045:1,2007-05-02T12:00:00Z,26.2168,-96.4998,2.0,77.07858028,14.08671005,-99999.0,'11111222,11111222,99999999' 
TABS,ioos:station:wmo:42045:1,2007-05-02T12:30:00Z,26.2168,-96.4998,2.0,72.45766614,11.97699879,-99999.0,'11111222,11111222,99999999' 
TABS,ioos:station:wmo:42045:1,2007-05-02T13:00:00Z,26.2168,-96.4998,2.0,90.37285143,13.83029284,-99999.0,'11111222,11111222,99999999' 
TABS,ioos:station:wmo:42045:1,2007-05-02T13:30:00Z,26.2168,-96.4998,2.0,89.91684237,13.78001451,-99999.0,'11111222,11111222,99999999' 
TABS,ioos:station:wmo:42045:1,2007-05-02T14:00:00Z,26.2168,-96.4998,2.0,101.6434043,11.79266297,-99999.0,'11111222,11111222,99999999' 
TABS,ioos:station:wmo:42045:1,2007-05-02T14:30:00Z,26.2168,-96.4998,2.0,94.23174645,13.6873153,-99999.0,'11111222,11111222,99999999' 
TABS,ioos:station:wmo:42045:1,2007-05-02T15:00:00Z,26.2168,-96.4998,2.0,101.4405314,13.76346613,-99999.0,'11111222,11111222,99999999' 
TABS,ioos:station:wmo:42045:1,2007-05-02T15:30:00Z,26.2168,-96.4998,2.0,80.61936412,11.53424467,-99999.0,'11111222,11111222,99999999' 
TABS,ioos:station:wmo:42045:1,2007-05-02T16:00:00Z,26.2168,-96.4998,2.0,83.88104069,11.72681116,-99999.0,'11111222,11111222,99999999' 
TABS,ioos:station:wmo:42045:1,2007-05-02T16:30:00Z,26.2168,-96.4998,2.0,70.10697454,13.04862062,-99999.0,'11111222,11111222,99999999' 
TABS,ioos:station:wmo:42045:1,2007-05-02T17:00:00Z,26.2168,-96.4998,2.0,58.55250575,10.56125939,-99999.0,'11111222,11111222,99999999' 
TABS,ioos:station:wmo:42045:1,2007-05-02T17:30:00Z,26.2168,-96.4998,2.0,60.37715858,11.65308972,-99999.0,'11111222,11111222,99999999' 
TABS,ioos:station:wmo:42045:1,2007-05-02T18:00:00Z,26.2168,-96.4998,2.0,60.86011362,13.04049846,-99999.0,'11111222,11111222,99999999' 
TABS,ioos:station:wmo:42045:1,2007-05-02T18:30:00Z,26.2168,-96.4998,2.0,67.56043791,14.67084183,-99999.0,'11111222,11111222,99999999' 
TABS,ioos:station:wmo:42045:1,2007-05-02T19:00:00Z,26.2168,-96.4998,2.0,66.82356001,17.02388029,-99999.0,'11111222,11111222,99999999' 
TABS,ioos:station:wmo:42045:1,2007-05-02T19:30:00Z,26.2168,-96.4998,2.0,64.36690454,18.42316477,-99999.0,'11111222,11111222,99999999' 
TABS,ioos:station:wmo:42045:1,2007-05-02T20:00:00Z,26.2168,-96.4998,2.0,60.6843898,18.54495349,-99999.0,'11111222,11111222,99999999' 
TABS,ioos:station:wmo:42045:1,2007-05-02T20:30:00Z,26.2168,-96.4998,2.0,61.18023381,19.43753585,-99999.0,'11111222,11111222,99999999' 
TABS,ioos:station:wmo:42045:1,2007-05-02T21:00:00Z,26.2168,-96.4998,2.0,55.36999711,18.93446593,-99999.0,'11111222,11111222,99999999' 
TABS,ioos:station:wmo:42045:1,2007-05-02T21:30:00Z,26.2168,-96.4998,2.0,64.37382438,22.38157278,-99999.0,'11111222,11111222,99999999' 
TABS,ioos:station:wmo:42045:1,2007-05-02T22:00:00Z,26.2168,-96.4998,2.0,62.51277653,20.56107244,-99999.0,'11111222,11111222,99999999' 
TABS,ioos:station:wmo:42045:1,2007-05-02T22:30:00Z,26.2168,-96.4998,2.0,75.93622349,20.1644142,-99999.0,'11111222,11111222,99999999' 
TABS,ioos:station:wmo:42045:1,2007-05-02T23:00:00Z,26.2168,-96.4998,2.0,72.84939265,22.85636017,-99999.0,'11111222,11111222,99999999' 
TABS,ioos:station:wmo:42045:1,2007-05-02T23:30:00Z,26.2168,-96.4998,2.0,71.9564276,20.37186786,-99999.0,'11111222,11111222,99999999' 
TABS,ioos:station:wmo:42045:1,2007-05-03T00:00:00Z,26.2168,-96.4998,2.0,81.84925469,19.60807232,-99999.0,'11111222,11111222,99999999' 
TABS,ioos:station:wmo:42045:1,2007-05-03T00:30:00Z,26.2168,-96.4998,2.0,75.58754456,21.05254616,-99999.0,'11111222,11111222,99999999' 
TABS,ioos:station:wmo:42045:1,2007-05-03T01:00:00Z,26.2168,-96.4998,2.0,78.03039855,15.67071792,-99999.0,'11111222,11111222,99999999' 
TABS,ioos:station:wmo:42045:1,2007-05-03T01:30:00Z,26.2168,-96.4998,2.0,77.06607351,9.203504767,-99999.0,'11133222,11111222,99999999' 
TABS,ioos:station:wmo:42045:1,2007-05-03T02:00:00Z,26.2168,-96.4998,2.0,84.91310205,17.3684081,-99999.0,'11111222,11111222,99999999' 
TABS,ioos:station:wmo:42045:1,2007-05-03T02:30:00Z,26.2168,-96.4998,2.0,83.61392538,16.54264791,-99999.0,'11111222,11111222,99999999' 
TABS,ioos:station:wmo:42045:1,2007-05-03T03:00:00Z,26.2168,-96.4998,2.0,90.80990293,16.27162561,-99999.0,'11111222,11111222,99999999' 
TABS,ioos:station:wmo:42045:1,2007-05-03T03:30:00Z,26.2168,-96.4998,2.0,91.08243414,14.29255051,-99999.0,'11111222,11111222,99999999' 
TABS,ioos:station:wmo:42045:1,2007-05-03T04:00:00Z,26.2168,-96.4998,2.0,98.45196561,12.58669933,-99999.0,'11111222,11111222,99999999' 
TABS,ioos:station:wmo:42045:1,2007-05-03T04:30:00Z,26.2168,-96.4998,2.0,107.314534,12.12965375,-99999.0,'11111222,11111222,99999999' 
TABS,ioos:station:wmo:42045:1,2007-05-03T05:00:00Z,26.2168,-96.4998,2.0,112.8551902,10.29854844,-99999.0,'11111222,11111222,99999999' 
TABS,ioos:station:wmo:42045:1,2007-05-03T05:30:00Z,26.2168,-96.4998,2.0,117.282268,8.57375647,-99999.0,'11133222,11111222,99999999' 
TABS,ioos:station:wmo:42045:1,2007-05-03T06:00:00Z,26.2168,-96.4998,2.0,136.0550582,6.527702505,-99999.0,'11133222,11111222,99999999' 
TABS,ioos:station:wmo:42045:1,2007-05-03T06:30:00Z,26.2168,-96.4998,2.0,122.5510963,8.790961267,-99999.0,'11133222,11111222,99999999' 
TABS,ioos:station:wmo:42045:1,2007-05-03T07:00:00Z,26.2168,-96.4998,2.0,126.9508519,8.484008487,-99999.0,'11133222,11111222,99999999' 
TABS,ioos:station:wmo:42045:1,2007-05-03T07:30:00Z,26.2168,-96.4998,2.0,118.1966577,11.93649865,-99999.0,'11111222,11111222,99999999' 
TABS,ioos:station:wmo:42045:1,2007-05-03T08:00:00Z,26.2168,-96.4998,2.0,113.0892631,14.45817762,-99999.0,'11111222,11111222,99999999' 
TABS,ioos:station:wmo:42045:1,2007-05-03T08:30:00Z,26.2168,-96.4998,2.0,123.0536404,14.48411544,-99999.0,'11111222,11111222,99999999' 
TABS,ioos:station:wmo:42045:1,2007-05-03T09:00:00Z,26.2168,-96.4998,2.0,134.5052913,25.39315065,-99999.0,'11111222,11111222,99999999' 
TABS,ioos:station:wmo:42045:1,2007-05-03T09:30:00Z,26.2168,-96.4998,2.0,148.6556718,26.08722484,-99999.0,'11111222,11111222,99999999' 
TABS,ioos:station:wmo:42045:1,2007-05-03T10:00:00Z,26.2168,-96.4998,2.0,168.9827037,26.4779852,-99999.0,'11111222,11111222,99999999' 
TABS,ioos:station:wmo:42045:1,2007-05-03T10:30:00Z,26.2168,-96.4998,2.0,181.5611241,23.4887207,-99999.0,'11111222,11111222,99999999' 
TABS,ioos:station:wmo:42045:1,2007-05-03T11:00:00Z,26.2168,-96.4998,2.0,175.7821566,22.57112536,-99999.0,'11111222,11111222,99999999' 
TABS,ioos:station:wmo:42045:1,2007-05-03T11:30:00Z,26.2168,-96.4998,2.0,172.4378366,9.270625653,-99999.0,'11133222,11111222,99999999' 
TABS,ioos:station:wmo:42045:1,2007-05-03T12:00:00Z,26.2168,-96.4998,2.0,182.8755861,14.94882604,-99999.0,'11111222,11111222,99999999' 
TABS,ioos:station:wmo:42045:1,2007-05-03T12:30:00Z,26.2168,-96.4998,2.0,194.1047117,14.15681461,-99999.0,'11111222,11111222,99999999' 
TABS,ioos:station:wmo:42045:1,2007-05-03T13:00:00Z,26.2168,-96.4998,2.0,241.4728205,14.76222883,-99999.0,'11111222,11111222,99999999' 
TABS,ioos:station:wmo:42045:1,2007-05-03T13:30:00Z,26.2168,-96.4998,2.0,242.1112902,13.36183371,-99999.0,'11111222,11111222,99999999' 
TABS,ioos:station:wmo:42045:1,2007-05-03T14:00:00Z,26.2168,-96.4998,2.0,269.5358013,16.06052614,-99999.0,'11111222,11111222,99999999' 
TABS,ioos:station:wmo:42045:1,2007-05-03T14:30:00Z,26.2168,-96.4998,2.0,291.3061547,17.17374741,-99999.0,'11111222,11111222,99999999' 
TABS,ioos:station:wmo:42045:1,2007-05-03T15:00:00Z,26.2168,-96.4998,2.0,309.1004765,17.67939196,-99999.0,'11111222,11111222,99999999' 
TABS,ioos:station:wmo:42045:1,2007-05-03T15:30:00Z,26.2168,-96.4998,2.0,314.7799489,18.38491229,-99999.0,'11111222,11111222,99999999' 
TABS,ioos:station:wmo:42045:1,2007-05-03T16:00:00Z,26.2168,-96.4998,2.0,319.6390104,20.19748747,-99999.0,'11111222,11111222,99999999' 
TABS,ioos:station:wmo:42045:1,2007-05-03T16:30:00Z,26.2168,-96.4998,2.0,325.3081846,23.78918242,-99999.0,'11111222,11111222,99999999' 
TABS,ioos:station:wmo:42045:1,2007-05-03T17:00:00Z,26.2168,-96.4998,2.0,327.6714765,31.17185429,-99999.0,'11111222,11111222,99999999' 
TABS,ioos:station:wmo:42045:1,2007-05-03T17:30:00Z,26.2168,-96.4998,2.0,335.1889596,30.97958037,-99999.0,'11111222,11111222,99999999' 
TABS,ioos:station:wmo:42045:1,2007-05-03T18:00:00Z,26.2168,-96.4998,2.0,339.3719777,31.56368166,-99999.0,'11111222,11111222,99999999' 
TABS,ioos:station:wmo:42045:1,2007-05-03T18:30:00Z,26.2168,-96.4998,2.0,348.8555572,33.31830878,-99999.0,'11111222,11111222,99999999' 
TABS,ioos:station:wmo:42045:1,2007-05-03T19:00:00Z,26.2168,-96.4998,2.0,358.4139672,32.51245915,-99999.0,'11111222,11111222,99999999' 
TABS,ioos:station:wmo:42045:1,2007-05-03T19:30:00Z,26.2168,-96.4998,2.0,2.558763482,36.06595347,-99999.0,'11111222,11111222,99999999' 
TABS,ioos:station:wmo:42045:1,2007-05-03T20:00:00Z,26.2168,-96.4998,2.0,10.40283255,34.05983705,-99999.0,'11111222,11111222,99999999' 
TABS,ioos:station:wmo:42045:1,2007-05-03T20:30:00Z,26.2168,-96.4998,2.0,20.50042373,36.06390578,-99999.0,'11111222,11111222,99999999' 
TABS,ioos:station:wmo:42045:1,2007-05-03T21:00:00Z,26.2168,-96.4998,2.0,25.29540949,36.93102354,-99999.0,'11111222,11111222,99999999' 
TABS,ioos:station:wmo:42045:1,2007-05-03T21:30:00Z,26.2168,-96.4998,2.0,33.3277819,38.58571756,-99999.0,'11111222,11111222,99999999' 
TABS,ioos:station:wmo:42045:1,2007-05-03T22:00:00Z,26.2168,-96.4998,2.0,39.47192764,40.00324112,-99999.0,'11111222,11111222,99999999' 
TABS,ioos:station:wmo:42045:1,2007-05-03T22:30:00Z,26.2168,-96.4998,2.0,44.47819577,41.91902909,-99999.0,'11111222,11111222,99999999' 
TABS,ioos:station:wmo:42045:1,2007-05-03T23:00:00Z,26.2168,-96.4998,2.0,50.67949831,42.65701466,-99999.0,'11111222,11111222,99999999' 
TABS,ioos:station:wmo:42045:1,2007-05-03T23:30:00Z,26.2168,-96.4998,2.0,57.7022074,45.89002615,-99999.0,'11111222,11111222,99999999' 
TABS,ioos:station:wmo:42045:1,2007-05-04T00:00:00Z,26.2168,-96.4998,2.0,63.06881957,45.4825516,-99999.0,'11111222,11111222,99999999' 
TABS,ioos:station:wmo:42045:1,2007-05-04T00:30:00Z,26.2168,-96.4998,2.0,70.34211892,46.96735994,-99999.0,'11111222,11111222,99999999' 
TABS,ioos:station:wmo:42045:1,2007-05-04T01:00:00Z,26.2168,-96.4998,2.0,77.79129742,42.13289095,-99999.0,'11111222,11111222,99999999' 
TABS,ioos:station:wmo:42045:1,2007-05-04T01:30:00Z,26.2168,-96.4998,2.0,78.99739393,17.18590411,-99999.0,'11111222,11111222,99999999' 
TABS,ioos:station:wmo:42045:1,2007-05-04T02:00:00Z,26.2168,-96.4998,2.0,80.11740776,48.18499559,-99999.0,'11111222,11111222,99999999' 
TABS,ioos:station:wmo:42045:1,2007-05-04T02:30:00Z,26.2168,-96.4998,2.0,90.62734355,47.49284683,-99999.0,'11111222,11111222,99999999' 
TABS,ioos:station:wmo:42045:1,2007-05-04T03:00:00Z,26.2168,-96.4998,2.0,93.49711862,47.37822496,-99999.0,'11111222,11111222,99999999' 
TABS,ioos:station:wmo:42045:1,2007-05-04T03:30:00Z,26.2168,-96.4998,2.0,99.38635725,43.41123472,-99999.0,'11111222,11111222,99999999' 
TABS,ioos:station:wmo:42045:1,2007-05-04T04:00:00Z,26.2168,-96.4998,2.0,108.8313411,46.16087196,-99999.0,'11111222,11111222,99999999' 
TABS,ioos:station:wmo:42045:1,2007-05-04T04:30:00Z,26.2168,-96.4998,2.0,118.1584695,48.56829007,-99999.0,'11111222,11111222,99999999' 
TABS,ioos:station:wmo:42045:1,2007-05-04T05:00:00Z,26.2168,-96.4998,2.0,118.602315,45.28664262,-99999.0,'11111222,11111222,99999999' 
TABS,ioos:station:wmo:42045:1,2007-05-04T05:30:00Z,26.2168,-96.4998,2.0,120.1548995,44.71070565,-99999.0,'11111222,11111222,99999999' 
TABS,ioos:station:wmo:42045:1,2007-05-04T06:00:00Z,26.2168,-96.4998,2.0,124.4319053,40.48264072,-99999.0,'11111222,11111222,99999999' 
TABS,ioos:station:wmo:42045:1,2007-05-04T06:30:00Z,26.2168,-96.4998,2.0,127.8914881,39.37025908,-99999.0,'11111222,11111222,99999999' 
TABS,ioos:station:wmo:42045:1,2007-05-04T07:00:00Z,26.2168,-96.4998,2.0,132.7568141,38.84285391,-99999.0,'11111222,11111222,99999999' 
TABS,ioos:station:wmo:42045:1,2007-05-04T07:30:00Z,26.2168,-96.4998,2.0,145.5061229,39.94234345,-99999.0,'11111222,11111222,99999999' 
TABS,ioos:station:wmo:42045:1,2007-05-04T08:00:00Z,26.2168,-96.4998,2.0,151.8736975,39.56178206,-99999.0,'11111222,11111222,99999999' 
TABS,ioos:station:wmo:42045:1,2007-05-04T08:30:00Z,26.2168,-96.4998,2.0,154.5986603,35.66817068,-99999.0,'11111222,11111222,99999999' 
TABS,ioos:station:wmo:42045:1,2007-05-04T09:00:00Z,26.2168,-96.4998,2.0,157.0320158,37.49222986,-99999.0,'11111222,11111222,99999999' 
TABS,ioos:station:wmo:42045:1,2007-05-04T09:30:00Z,26.2168,-96.4998,2.0,159.9082411,39.70634332,-99999.0,'11111222,11111222,99999999' 
TABS,ioos:station:wmo:42045:1,2007-05-04T10:00:00Z,26.2168,-96.4998,2.0,161.2610717,37.57154908,-99999.0,'11111222,11111222,99999999' 
TABS,ioos:station:wmo:42045:1,2007-05-04T10:30:00Z,26.2168,-96.4998,2.0,160.4509563,35.62346558,-99999.0,'11111222,11111222,99999999' 
TABS,ioos:station:wmo:42045:1,2007-05-04T11:00:00Z,26.2168,-96.4998,2.0,164.1821753,35.73306592,-99999.0,'11111222,11111222,99999999' 
TABS,ioos:station:wmo:42045:1,2007-05-04T11:30:00Z,26.2168,-96.4998,2.0,164.892618,18.68578337,-99999.0,'11111222,11111222,99999999' 
TABS,ioos:station:wmo:42045:1,2007-05-04T12:00:00Z,26.2168,-96.4998,2.0,162.275582,27.78907159,-99999.0,'11111222,11111222,99999999' 
TABS,ioos:station:wmo:42045:1,2007-05-04T12:30:00Z,26.2168,-96.4998,2.0,161.7884028,26.74991028,-99999.0,'11111222,11111222,99999999' 
TABS,ioos:station:wmo:42045:1,2007-05-04T13:00:00Z,26.2168,-96.4998,2.0,172.0603425,26.35260139,-99999.0,'11111222,11111222,99999999' 
TABS,ioos:station:wmo:42045:1,2007-05-04T13:30:00Z,26.2168,-96.4998,2.0,174.0766981,25.48606286,-99999.0,'11111222,11111222,99999999' 
TABS,ioos:station:wmo:42045:1,2007-05-04T14:00:00Z,26.2168,-96.4998,2.0,172.2052822,21.97301299,-99999.0,'11111222,11111222,99999999' 
TABS,ioos:station:wmo:42045:1,2007-05-04T14:30:00Z,26.2168,-96.4998,2.0,165.4481345,22.64646772,-99999.0,'11111222,11111222,99999999' 
TABS,ioos:station:wmo:42045:1,2007-05-04T15:00:00Z,26.2168,-96.4998,2.0,168.7134039,19.10955782,-99999.0,'11111222,11111222,99999999' 
TABS,ioos:station:wmo:42045:1,2007-05-04T15:30:00Z,26.2168,-96.4998,2.0,191.4432516,10.93742657,-99999.0,'11111222,11111222,99999999' 